Regional Weather Roundup
Issued by NWS

Home | Current Version | Previous Version | Text Only | Print | Product List | Glossary On
Versions: 1 2 3 4 5 6 7 8 9 10 11 12 13 14 15 16 17 18 19 20 21 22 23 24 25 26 27 28 29 30 31 32 33 34 35 36 37 38 39 40 41 42 43 44 45 46 47 48 49 50
000
ASUS44 KBMX 281510
RWRAL

ALABAMA REGIONAL WEATHER ROUNDUP
NATIONAL WEATHER SERVICE BIRMINGHAM AL
1000 AM CDT FRI AUG 28 2015

NOTE: "FAIR" INDICATES FEW OR NO CLOUDS BELOW 12,000 FEET
WITH NO SIGNIFICANT WEATHER AND/OR OBSTRUCTIONS TO VISIBILITY.

THE REMARK "TC" DENOTES TEMPERATURE IN DEGREES CELSIUS.

ALZ001>011-014-016>018-020-281600-
NORTH ALABAMA

CITY           SKY/WX    TMP DP  RH WIND       PRES   REMARKS
MUSCLE SHOALS  SUNNY     77  66  68 SE6       30.13S
HUNTSVILLE     MOSUNNY   79  66  64 E14       30.13S
DECATUR        SUNNY     76  67  73 E9        30.13S
HALEYVILLE     FAIR      79  69  71 CALM      30.15S
GADSDEN        CLOUDY    75  64  69 NE9       30.15R
$$

ALZ012-013-022-023-030>036-040>044-281600-
WEST CENTRAL ALABAMA

CITY           SKY/WX    TMP DP  RH WIND       PRES   REMARKS
TUSCALOOSA     SUNNY     82  68  62 E7        30.08R
$$

ALZ015-024>027-033>036-040>044-281600-
CENTRAL ALABAMA

CITY           SKY/WX    TMP DP  RH WIND       PRES   REMARKS
BIRMINGHAM     MOSUNNY   79  69  71 NE7       30.14R
MONTGOMERY     PTSUNNY   83  70  64 E10       30.07R
SHELBY CO ARPT MOSUNNY   79  69  71 VRB5      30.11R
MAXWELL AFB    MOSUNNY   82  71  69 E9        30.07R
GREENVILLE     FAIR      83  69  62 SE7       30.05R
$$

ALZ019-021-028-029-037-038-045>048-281600-
EAST CENTRAL ALABAMA

CITY           SKY/WX    TMP DP  RH WIND       PRES   REMARKS
ANNISTON       PTSUNNY   77  69  76 E7        30.14R
ALEXANDER CITY CLOUDY    77  73  87 E5        30.12S
AUBURN         CLOUDY    79  72  79 E8        30.12S
$$

ALZ051>064-281600-
SOUTHWEST ALABAMA

CITY           SKY/WX    TMP DP  RH WIND       PRES   REMARKS
MOBILE         MOSUNNY   81  68  64 CALM      30.03R
BROOKLEY FIELD SUNNY     80  68  66 E6        30.04R
EVERGREEN      MOSUNNY   82  69  64 E5        30.05R
$$

ALZ049-050-065>069-281600-
SOUTHEAST ALABAMA

CITY           SKY/WX    TMP DP  RH WIND       PRES   REMARKS
DOTHAN         PTSUNNY   82  72  71 E6        30.09R
OZARK          MOSUNNY   83  73  70 E6        30.05R
TROY           SUNNY     82  71  69 E6        30.07R
EUFAULA        CLOUDY    83  75  77 E7        30.08R HX  90
$$


USA.gov is the U.S. government's official web portal to all federal, state and local government web resources and services.